<?xml version="1.0" encoding="UTF-8" standalone="no" ?>
<gpx xmlns="http://www.topografix.com/GPX/1/1" xmlns:xsi="http://www.w3.org/2001/XMLSchema-instance" xsi:schemaLocation="http://www.topografix.com/GPX/1/1 http://www.topografix.com/GPX/1/1/gpx.xsd" version="1.1" creator="VisuGPX - https://www.visugpx.com">
  <metadata>
    <name>Aravis, séjour du RCMF</name>
    <desc><![CDATA[Aravis, séjour du RCMF]]></desc>
  </metadata>
  <trk>
    <name><![CDATA[Croisse Baulet 2]]></name>
    <trkseg>
      <trkpt lat="45.88026" lon="6.52742">
        <ele>1248</ele>
        <time>2003-03-19T20:25:33Z</time>
      </trkpt>
      <trkpt lat="45.88009" lon="6.52785">
        <ele>1253</ele>
        <time>2003-03-19T20:25:33Z</time>
      </trkpt>
      <trkpt lat="45.87989" lon="6.52865">
        <ele>1259</ele>
        <time>2003-03-19T20:25:33Z</time>
      </trkpt>
      <trkpt lat="45.87979" lon="6.52884">
        <ele>1261</ele>
        <time>2003-03-19T20:25:33Z</time>
      </trkpt>
      <trkpt lat="45.87949" lon="6.52923">
        <ele>1264</ele>
        <time>2003-03-19T20:25:33Z</time>
      </trkpt>
      <trkpt lat="45.87934" lon="6.53017">
        <ele>1275</ele>
        <time>2003-03-19T20:25:33Z</time>
      </trkpt>
      <trkpt lat="45.87938" lon="6.53049">
        <ele>1275</ele>
        <time>2003-03-19T20:25:33Z</time>
      </trkpt>
      <trkpt lat="45.87946" lon="6.53071">
        <ele>1275</ele>
        <time>2003-03-19T20:25:33Z</time>
      </trkpt>
      <trkpt lat="45.87959" lon="6.53092">
        <ele>1276</ele>
        <time>2003-03-19T20:25:33Z</time>
      </trkpt>
      <trkpt lat="45.87991" lon="6.53133">
        <ele>1277</ele>
        <time>2003-03-19T20:25:33Z</time>
      </trkpt>
      <trkpt lat="45.87989" lon="6.53169">
        <ele>1279</ele>
        <time>2003-03-19T20:25:33Z</time>
      </trkpt>
      <trkpt lat="45.87968" lon="6.53197">
        <ele>1279</ele>
        <time>2003-03-19T20:25:33Z</time>
      </trkpt>
      <trkpt lat="45.87951" lon="6.53247">
        <ele>1283</ele>
        <time>2003-03-19T20:25:33Z</time>
      </trkpt>
      <trkpt lat="45.87899" lon="6.53326">
        <ele>1290</ele>
        <time>2003-03-19T20:25:33Z</time>
      </trkpt>
      <trkpt lat="45.87843" lon="6.53461">
        <ele>1292</ele>
        <time>2003-03-19T20:25:33Z</time>
      </trkpt>
      <trkpt lat="45.8782" lon="6.53553">
        <ele>1293</ele>
        <time>2003-03-19T20:25:33Z</time>
      </trkpt>
      <trkpt lat="45.87773" lon="6.53633">
        <ele>1300</ele>
        <time>2003-03-19T20:25:33Z</time>
      </trkpt>
      <trkpt lat="45.87762" lon="6.53656">
        <ele>1304</ele>
        <time>2003-03-19T20:25:33Z</time>
      </trkpt>
      <trkpt lat="45.87749" lon="6.53708">
        <ele>1310</ele>
        <time>2003-03-19T20:25:33Z</time>
      </trkpt>
      <trkpt lat="45.87685" lon="6.5383">
        <ele>1318</ele>
        <time>2003-03-19T20:25:33Z</time>
      </trkpt>
      <trkpt lat="45.8767" lon="6.53899">
        <ele>1321</ele>
        <time>2003-03-19T20:25:33Z</time>
      </trkpt>
      <trkpt lat="45.8767" lon="6.53935">
        <ele>1321</ele>
        <time>2003-03-19T20:25:33Z</time>
      </trkpt>
      <trkpt lat="45.87659" lon="6.5397">
        <ele>1324</ele>
        <time>2003-03-19T20:25:33Z</time>
      </trkpt>
      <trkpt lat="45.87661" lon="6.53983">
        <ele>1325</ele>
        <time>2003-03-19T20:25:33Z</time>
      </trkpt>
      <trkpt lat="45.87655" lon="6.53996">
        <ele>1329</ele>
        <time>2003-03-19T20:25:33Z</time>
      </trkpt>
      <trkpt lat="45.87659" lon="6.53989">
        <ele>1321</ele>
        <time>2003-03-19T20:25:33Z</time>
      </trkpt>
      <trkpt lat="45.87655" lon="6.53991">
        <ele>1330</ele>
        <time>2003-03-19T20:25:33Z</time>
      </trkpt>
      <trkpt lat="45.87657" lon="6.53998">
        <ele>1325</ele>
        <time>2003-03-19T20:25:33Z</time>
      </trkpt>
      <trkpt lat="45.8765" lon="6.54002">
        <ele>1329</ele>
        <time>2003-03-19T20:25:33Z</time>
      </trkpt>
      <trkpt lat="45.87629" lon="6.54034">
        <ele>1326</ele>
        <time>2003-03-19T20:25:33Z</time>
      </trkpt>
      <trkpt lat="45.8759" lon="6.5406">
        <ele>1328</ele>
        <time>2003-03-19T20:25:33Z</time>
      </trkpt>
      <trkpt lat="45.87582" lon="6.54068">
        <ele>1330</ele>
        <time>2003-03-19T20:25:33Z</time>
      </trkpt>
      <trkpt lat="45.87575" lon="6.54116">
        <ele>1331</ele>
        <time>2003-03-19T20:25:33Z</time>
      </trkpt>
      <trkpt lat="45.87562" lon="6.54146">
        <ele>1334</ele>
        <time>2003-03-19T20:25:33Z</time>
      </trkpt>
      <trkpt lat="45.87554" lon="6.54169">
        <ele>1337</ele>
        <time>2003-03-19T20:25:33Z</time>
      </trkpt>
      <trkpt lat="45.87556" lon="6.54178">
        <ele>1337</ele>
        <time>2003-03-19T20:25:33Z</time>
      </trkpt>
      <trkpt lat="45.87567" lon="6.54182">
        <ele>1337</ele>
        <time>2003-03-19T20:25:33Z</time>
      </trkpt>
      <trkpt lat="45.87569" lon="6.54242">
        <ele>1340</ele>
        <time>2003-03-19T20:25:33Z</time>
      </trkpt>
      <trkpt lat="45.87573" lon="6.54255">
        <ele>1341</ele>
        <time>2003-03-19T20:25:33Z</time>
      </trkpt>
      <trkpt lat="45.87586" lon="6.54279">
        <ele>1342</ele>
        <time>2003-03-19T20:25:33Z</time>
      </trkpt>
      <trkpt lat="45.87588" lon="6.54289">
        <ele>1343</ele>
        <time>2003-03-19T20:25:33Z</time>
      </trkpt>
      <trkpt lat="45.87584" lon="6.54298">
        <ele>1363</ele>
        <time>2003-03-19T20:25:33Z</time>
      </trkpt>
      <trkpt lat="45.87577" lon="6.543">
        <ele>1386</ele>
        <time>2003-03-19T20:25:33Z</time>
      </trkpt>
      <trkpt lat="45.87569" lon="6.54317">
        <ele>1390</ele>
        <time>2003-03-19T20:25:33Z</time>
      </trkpt>
      <trkpt lat="45.8756" lon="6.54356">
        <ele>1399</ele>
        <time>2003-03-19T20:25:33Z</time>
      </trkpt>
      <trkpt lat="45.87552" lon="6.54377">
        <ele>1404</ele>
        <time>2003-03-19T20:25:33Z</time>
      </trkpt>
      <trkpt lat="45.87556" lon="6.54403">
        <ele>1408</ele>
        <time>2003-03-19T20:25:33Z</time>
      </trkpt>
      <trkpt lat="45.8756" lon="6.5441">
        <ele>1410</ele>
        <time>2003-03-19T20:25:33Z</time>
      </trkpt>
      <trkpt lat="45.87562" lon="6.54453">
        <ele>1413</ele>
        <time>2003-03-19T20:25:33Z</time>
      </trkpt>
      <trkpt lat="45.87569" lon="6.54476">
        <ele>1420</ele>
        <time>2003-03-19T20:25:33Z</time>
      </trkpt>
      <trkpt lat="45.87586" lon="6.54515">
        <ele>1424</ele>
        <time>2003-03-19T20:25:33Z</time>
      </trkpt>
      <trkpt lat="45.87575" lon="6.54521">
        <ele>1425</ele>
        <time>2003-03-19T20:25:33Z</time>
      </trkpt>
      <trkpt lat="45.87577" lon="6.54528">
        <ele>1425</ele>
        <time>2003-03-19T20:25:33Z</time>
      </trkpt>
      <trkpt lat="45.87571" lon="6.54523">
        <ele>1420</ele>
        <time>2003-03-19T20:25:33Z</time>
      </trkpt>
      <trkpt lat="45.87558" lon="6.54534">
        <ele>1421</ele>
        <time>2003-03-19T20:25:33Z</time>
      </trkpt>
      <trkpt lat="45.87547" lon="6.54545">
        <ele>1420</ele>
        <time>2003-03-19T20:25:33Z</time>
      </trkpt>
      <trkpt lat="45.87528" lon="6.54564">
        <ele>1428</ele>
        <time>2003-03-19T20:25:33Z</time>
      </trkpt>
      <trkpt lat="45.87524" lon="6.54583">
        <ele>1431</ele>
        <time>2003-03-19T20:25:33Z</time>
      </trkpt>
      <trkpt lat="45.87517" lon="6.54596">
        <ele>1433</ele>
        <time>2003-03-19T20:25:33Z</time>
      </trkpt>
      <trkpt lat="45.87502" lon="6.54616">
        <ele>1435</ele>
        <time>2003-03-19T20:25:33Z</time>
      </trkpt>
      <trkpt lat="45.87449" lon="6.54644">
        <ele>1442</ele>
        <time>2003-03-19T20:25:33Z</time>
      </trkpt>
      <trkpt lat="45.87438" lon="6.5465">
        <ele>1445</ele>
        <time>2003-03-19T20:25:33Z</time>
      </trkpt>
      <trkpt lat="45.87429" lon="6.54663">
        <ele>1450</ele>
        <time>2003-03-19T20:25:33Z</time>
      </trkpt>
      <trkpt lat="45.87425" lon="6.54678">
        <ele>1449</ele>
        <time>2003-03-19T20:25:33Z</time>
      </trkpt>
      <trkpt lat="45.87401" lon="6.548">
        <ele>1458</ele>
        <time>2003-03-19T20:25:33Z</time>
      </trkpt>
      <trkpt lat="45.87389" lon="6.54935">
        <ele>1479</ele>
        <time>2003-03-19T20:25:33Z</time>
      </trkpt>
      <trkpt lat="45.87391" lon="6.54959">
        <ele>1480</ele>
        <time>2003-03-19T20:25:33Z</time>
      </trkpt>
      <trkpt lat="45.87404" lon="6.55">
        <ele>1487</ele>
        <time>2003-03-19T20:25:33Z</time>
      </trkpt>
      <trkpt lat="45.87401" lon="6.55008">
        <ele>1489</ele>
        <time>2003-03-19T20:25:33Z</time>
      </trkpt>
      <trkpt lat="45.87404" lon="6.55006">
        <ele>1500</ele>
        <time>2003-03-19T20:25:33Z</time>
      </trkpt>
      <trkpt lat="45.87401" lon="6.55008">
        <ele>1489</ele>
        <time>2003-03-19T20:25:33Z</time>
      </trkpt>
      <trkpt lat="45.87401" lon="6.5503">
        <ele>1490</ele>
        <time>2003-03-19T20:25:33Z</time>
      </trkpt>
      <trkpt lat="45.87404" lon="6.55043">
        <ele>1491</ele>
        <time>2003-03-19T20:25:33Z</time>
      </trkpt>
      <trkpt lat="45.87397" lon="6.55073">
        <ele>1494</ele>
        <time>2003-03-19T20:25:33Z</time>
      </trkpt>
      <trkpt lat="45.87397" lon="6.55088">
        <ele>1496</ele>
        <time>2003-03-19T20:25:33Z</time>
      </trkpt>
      <trkpt lat="45.87386" lon="6.55143">
        <ele>1500</ele>
        <time>2003-03-19T20:25:33Z</time>
      </trkpt>
      <trkpt lat="45.87382" lon="6.55174">
        <ele>1498</ele>
        <time>2003-03-19T20:25:33Z</time>
      </trkpt>
      <trkpt lat="45.87376" lon="6.55189">
        <ele>1500</ele>
        <time>2003-03-19T20:25:33Z</time>
      </trkpt>
      <trkpt lat="45.87369" lon="6.55227">
        <ele>1503</ele>
        <time>2003-03-19T20:25:33Z</time>
      </trkpt>
      <trkpt lat="45.87365" lon="6.55266">
        <ele>1507</ele>
        <time>2003-03-19T20:25:33Z</time>
      </trkpt>
      <trkpt lat="45.8735" lon="6.55302">
        <ele>1511</ele>
        <time>2003-03-19T20:25:33Z</time>
      </trkpt>
      <trkpt lat="45.87331" lon="6.55332">
        <ele>1515</ele>
        <time>2003-03-19T20:25:33Z</time>
      </trkpt>
      <trkpt lat="45.87316" lon="6.55384">
        <ele>1518</ele>
        <time>2003-03-19T20:25:33Z</time>
      </trkpt>
      <trkpt lat="45.87313" lon="6.55407">
        <ele>1519</ele>
        <time>2003-03-19T20:25:33Z</time>
      </trkpt>
      <trkpt lat="45.87316" lon="6.55446">
        <ele>1519</ele>
        <time>2003-03-19T20:25:33Z</time>
      </trkpt>
      <trkpt lat="45.87322" lon="6.55463">
        <ele>1521</ele>
        <time>2003-03-19T20:25:33Z</time>
      </trkpt>
      <trkpt lat="45.87343" lon="6.55502">
        <ele>1525</ele>
        <time>2003-03-19T20:25:33Z</time>
      </trkpt>
      <trkpt lat="45.87356" lon="6.5554">
        <ele>1525</ele>
        <time>2003-03-19T20:25:33Z</time>
      </trkpt>
      <trkpt lat="45.87384" lon="6.55588">
        <ele>1527</ele>
        <time>2003-03-19T20:25:33Z</time>
      </trkpt>
      <trkpt lat="45.87393" lon="6.55616">
        <ele>1532</ele>
        <time>2003-03-19T20:25:33Z</time>
      </trkpt>
      <trkpt lat="45.87401" lon="6.55631">
        <ele>1532</ele>
        <time>2003-03-19T20:25:33Z</time>
      </trkpt>
      <trkpt lat="45.87446" lon="6.55663">
        <ele>1538</ele>
        <time>2003-03-19T20:25:33Z</time>
      </trkpt>
      <trkpt lat="45.87436" lon="6.55691">
        <ele>1541</ele>
        <time>2003-03-19T20:25:33Z</time>
      </trkpt>
      <trkpt lat="45.87438" lon="6.55719">
        <ele>1543</ele>
        <time>2003-03-19T20:25:33Z</time>
      </trkpt>
      <trkpt lat="45.87412" lon="6.55759">
        <ele>1548</ele>
        <time>2003-03-19T20:25:33Z</time>
      </trkpt>
      <trkpt lat="45.87408" lon="6.55781">
        <ele>1550</ele>
        <time>2003-03-19T20:25:33Z</time>
      </trkpt>
      <trkpt lat="45.8741" lon="6.5586">
        <ele>1553</ele>
        <time>2003-03-19T20:25:33Z</time>
      </trkpt>
      <trkpt lat="45.87419" lon="6.55875">
        <ele>1557</ele>
        <time>2003-03-19T20:25:33Z</time>
      </trkpt>
      <trkpt lat="45.87434" lon="6.55957">
        <ele>1559</ele>
        <time>2003-03-19T20:25:33Z</time>
      </trkpt>
      <trkpt lat="45.87446" lon="6.55993">
        <ele>1557</ele>
        <time>2003-03-19T20:25:33Z</time>
      </trkpt>
      <trkpt lat="45.87451" lon="6.56">
        <ele>1557</ele>
        <time>2003-03-19T20:25:33Z</time>
      </trkpt>
      <trkpt lat="45.87472" lon="6.56021">
        <ele>1563</ele>
        <time>2003-03-19T20:25:33Z</time>
      </trkpt>
      <trkpt lat="45.87498" lon="6.5606">
        <ele>1563</ele>
        <time>2003-03-19T20:25:33Z</time>
      </trkpt>
      <trkpt lat="45.87509" lon="6.5607">
        <ele>1564</ele>
        <time>2003-03-19T20:25:33Z</time>
      </trkpt>
      <trkpt lat="45.87528" lon="6.56077">
        <ele>1566</ele>
        <time>2003-03-19T20:25:33Z</time>
      </trkpt>
      <trkpt lat="45.87519" lon="6.56105">
        <ele>1565</ele>
        <time>2003-03-19T20:25:33Z</time>
      </trkpt>
      <trkpt lat="45.8753" lon="6.5612">
        <ele>1566</ele>
        <time>2003-03-19T20:25:33Z</time>
      </trkpt>
      <trkpt lat="45.87545" lon="6.56133">
        <ele>1572</ele>
        <time>2003-03-19T20:25:33Z</time>
      </trkpt>
      <trkpt lat="45.87586" lon="6.56188">
        <ele>1573</ele>
        <time>2003-03-19T20:25:33Z</time>
      </trkpt>
      <trkpt lat="45.87595" lon="6.56208">
        <ele>1573</ele>
        <time>2003-03-19T20:25:33Z</time>
      </trkpt>
      <trkpt lat="45.87614" lon="6.56242">
        <ele>1577</ele>
        <time>2003-03-19T20:25:33Z</time>
      </trkpt>
      <trkpt lat="45.87642" lon="6.56285">
        <ele>1584</ele>
        <time>2003-03-19T20:25:33Z</time>
      </trkpt>
      <trkpt lat="45.8765" lon="6.56294">
        <ele>1586</ele>
        <time>2003-03-19T20:25:33Z</time>
      </trkpt>
      <trkpt lat="45.87659" lon="6.56319">
        <ele>1588</ele>
        <time>2003-03-19T20:25:33Z</time>
      </trkpt>
      <trkpt lat="45.87676" lon="6.5633">
        <ele>1590</ele>
        <time>2003-03-19T20:25:33Z</time>
      </trkpt>
      <trkpt lat="45.87687" lon="6.56343">
        <ele>1592</ele>
        <time>2003-03-19T20:25:33Z</time>
      </trkpt>
      <trkpt lat="45.87715" lon="6.56347">
        <ele>1596</ele>
        <time>2003-03-19T20:25:33Z</time>
      </trkpt>
      <trkpt lat="45.87717" lon="6.56356">
        <ele>1594</ele>
        <time>2003-03-19T20:25:33Z</time>
      </trkpt>
      <trkpt lat="45.87706" lon="6.56377">
        <ele>1595</ele>
        <time>2003-03-19T20:25:33Z</time>
      </trkpt>
      <trkpt lat="45.87732" lon="6.56397">
        <ele>1594</ele>
        <time>2003-03-19T20:25:33Z</time>
      </trkpt>
      <trkpt lat="45.87738" lon="6.56418">
        <ele>1595</ele>
        <time>2003-03-19T20:25:33Z</time>
      </trkpt>
      <trkpt lat="45.87751" lon="6.56474">
        <ele>1599</ele>
        <time>2003-03-19T20:25:33Z</time>
      </trkpt>
      <trkpt lat="45.87751" lon="6.56506">
        <ele>1600</ele>
        <time>2003-03-19T20:25:33Z</time>
      </trkpt>
      <trkpt lat="45.87764" lon="6.56545">
        <ele>1600</ele>
        <time>2003-03-19T20:25:33Z</time>
      </trkpt>
      <trkpt lat="45.8776" lon="6.56555">
        <ele>1604</ele>
        <time>2003-03-19T20:25:33Z</time>
      </trkpt>
      <trkpt lat="45.87766" lon="6.56551">
        <ele>1605</ele>
        <time>2003-03-19T20:25:33Z</time>
      </trkpt>
      <trkpt lat="45.87766" lon="6.5656">
        <ele>1608</ele>
        <time>2003-03-19T20:25:33Z</time>
      </trkpt>
      <trkpt lat="45.87762" lon="6.56573">
        <ele>1610</ele>
        <time>2003-03-19T20:25:33Z</time>
      </trkpt>
      <trkpt lat="45.87775" lon="6.56579">
        <ele>1613</ele>
        <time>2003-03-19T20:25:33Z</time>
      </trkpt>
      <trkpt lat="45.87792" lon="6.56611">
        <ele>1622</ele>
        <time>2003-03-19T20:25:33Z</time>
      </trkpt>
      <trkpt lat="45.87803" lon="6.56609">
        <ele>1625</ele>
        <time>2003-03-19T20:25:33Z</time>
      </trkpt>
      <trkpt lat="45.87805" lon="6.5659">
        <ele>1631</ele>
        <time>2003-03-19T20:25:33Z</time>
      </trkpt>
      <trkpt lat="45.87816" lon="6.56613">
        <ele>1637</ele>
        <time>2003-03-19T20:25:33Z</time>
      </trkpt>
      <trkpt lat="45.87822" lon="6.56626">
        <ele>1636</ele>
        <time>2003-03-19T20:25:33Z</time>
      </trkpt>
      <trkpt lat="45.87841" lon="6.56628">
        <ele>1640</ele>
        <time>2003-03-19T20:25:33Z</time>
      </trkpt>
      <trkpt lat="45.87848" lon="6.56618">
        <ele>1651</ele>
        <time>2003-03-19T20:25:33Z</time>
      </trkpt>
      <trkpt lat="45.87854" lon="6.56588">
        <ele>1658</ele>
        <time>2003-03-19T20:25:33Z</time>
      </trkpt>
      <trkpt lat="45.87871" lon="6.56607">
        <ele>1666</ele>
        <time>2003-03-19T20:25:33Z</time>
      </trkpt>
      <trkpt lat="45.87873" lon="6.56618">
        <ele>1668</ele>
        <time>2003-03-19T20:25:33Z</time>
      </trkpt>
      <trkpt lat="45.8788" lon="6.56628">
        <ele>1671</ele>
        <time>2003-03-19T20:25:33Z</time>
      </trkpt>
      <trkpt lat="45.87906" lon="6.56661">
        <ele>1679</ele>
        <time>2003-03-19T20:25:33Z</time>
      </trkpt>
      <trkpt lat="45.87903" lon="6.56661">
        <ele>1681</ele>
        <time>2003-03-19T20:25:33Z</time>
      </trkpt>
      <trkpt lat="45.87906" lon="6.56661">
        <ele>1679</ele>
        <time>2003-03-19T20:25:33Z</time>
      </trkpt>
      <trkpt lat="45.87903" lon="6.56667">
        <ele>1685</ele>
        <time>2003-03-19T20:25:33Z</time>
      </trkpt>
      <trkpt lat="45.87906" lon="6.56658">
        <ele>1680</ele>
        <time>2003-03-19T20:25:33Z</time>
      </trkpt>
      <trkpt lat="45.87919" lon="6.5668">
        <ele>1681</ele>
        <time>2003-03-19T20:25:33Z</time>
      </trkpt>
      <trkpt lat="45.87936" lon="6.56691">
        <ele>1687</ele>
        <time>2003-03-19T20:25:33Z</time>
      </trkpt>
      <trkpt lat="45.87968" lon="6.56725">
        <ele>1693</ele>
        <time>2003-03-19T20:25:33Z</time>
      </trkpt>
      <trkpt lat="45.87994" lon="6.56742">
        <ele>1699</ele>
        <time>2003-03-19T20:25:33Z</time>
      </trkpt>
      <trkpt lat="45.8803" lon="6.56744">
        <ele>1698</ele>
        <time>2003-03-19T20:25:33Z</time>
      </trkpt>
      <trkpt lat="45.8806" lon="6.56755">
        <ele>1701</ele>
        <time>2003-03-19T20:25:33Z</time>
      </trkpt>
      <trkpt lat="45.88077" lon="6.56766">
        <ele>1705</ele>
        <time>2003-03-19T20:25:33Z</time>
      </trkpt>
      <trkpt lat="45.88097" lon="6.56781">
        <ele>1708</ele>
        <time>2003-03-19T20:25:33Z</time>
      </trkpt>
      <trkpt lat="45.88122" lon="6.5683">
        <ele>1710</ele>
        <time>2003-03-19T20:25:33Z</time>
      </trkpt>
      <trkpt lat="45.88133" lon="6.56841">
        <ele>1711</ele>
        <time>2003-03-19T20:25:33Z</time>
      </trkpt>
      <trkpt lat="45.88129" lon="6.56852">
        <ele>1712</ele>
        <time>2003-03-19T20:25:33Z</time>
      </trkpt>
      <trkpt lat="45.88118" lon="6.56864">
        <ele>1715</ele>
        <time>2003-03-19T20:25:33Z</time>
      </trkpt>
      <trkpt lat="45.88118" lon="6.56882">
        <ele>1715</ele>
        <time>2003-03-19T20:25:33Z</time>
      </trkpt>
      <trkpt lat="45.88125" lon="6.56912">
        <ele>1717</ele>
        <time>2003-03-19T20:25:33Z</time>
      </trkpt>
      <trkpt lat="45.88127" lon="6.56993">
        <ele>1723</ele>
        <time>2003-03-19T20:25:33Z</time>
      </trkpt>
      <trkpt lat="45.88109" lon="6.57064">
        <ele>1731</ele>
        <time>2003-03-19T20:25:33Z</time>
      </trkpt>
      <trkpt lat="45.88109" lon="6.57109">
        <ele>1733</ele>
        <time>2003-03-19T20:25:33Z</time>
      </trkpt>
      <trkpt lat="45.88107" lon="6.57109">
        <ele>1735</ele>
        <time>2003-03-19T20:25:33Z</time>
      </trkpt>
      <trkpt lat="45.88107" lon="6.57105">
        <ele>1731</ele>
        <time>2003-03-19T20:25:33Z</time>
      </trkpt>
      <trkpt lat="45.88109" lon="6.57109">
        <ele>1731</ele>
        <time>2003-03-19T20:25:33Z</time>
      </trkpt>
      <trkpt lat="45.88107" lon="6.57111">
        <ele>1733</ele>
        <time>2003-03-19T20:25:33Z</time>
      </trkpt>
      <trkpt lat="45.88107" lon="6.57113">
        <ele>1737</ele>
        <time>2003-03-19T20:25:33Z</time>
      </trkpt>
      <trkpt lat="45.88086" lon="6.57088">
        <ele>1730</ele>
        <time>2003-03-19T20:25:33Z</time>
      </trkpt>
      <trkpt lat="45.88047" lon="6.57064">
        <ele>1737</ele>
        <time>2003-03-19T20:25:33Z</time>
      </trkpt>
      <trkpt lat="45.88019" lon="6.57068">
        <ele>1740</ele>
        <time>2003-03-19T20:25:33Z</time>
      </trkpt>
      <trkpt lat="45.87996" lon="6.57083">
        <ele>1742</ele>
        <time>2003-03-19T20:25:33Z</time>
      </trkpt>
      <trkpt lat="45.87955" lon="6.57137">
        <ele>1738</ele>
        <time>2003-03-19T20:25:33Z</time>
      </trkpt>
      <trkpt lat="45.8794" lon="6.57146">
        <ele>1736</ele>
        <time>2003-03-19T20:25:33Z</time>
      </trkpt>
      <trkpt lat="45.87921" lon="6.57141">
        <ele>1736</ele>
        <time>2003-03-19T20:25:33Z</time>
      </trkpt>
      <trkpt lat="45.87897" lon="6.57128">
        <ele>1739</ele>
        <time>2003-03-19T20:25:33Z</time>
      </trkpt>
      <trkpt lat="45.87846" lon="6.57107">
        <ele>1748</ele>
        <time>2003-03-19T20:25:33Z</time>
      </trkpt>
      <trkpt lat="45.8782" lon="6.57088">
        <ele>1752</ele>
        <time>2003-03-19T20:25:33Z</time>
      </trkpt>
      <trkpt lat="45.87794" lon="6.57062">
        <ele>1749</ele>
        <time>2003-03-19T20:25:33Z</time>
      </trkpt>
      <trkpt lat="45.87743" lon="6.57045">
        <ele>1745</ele>
        <time>2003-03-19T20:25:33Z</time>
      </trkpt>
      <trkpt lat="45.87725" lon="6.57023">
        <ele>1746</ele>
        <time>2003-03-19T20:25:33Z</time>
      </trkpt>
      <trkpt lat="45.87713" lon="6.56991">
        <ele>1746</ele>
        <time>2003-03-19T20:25:33Z</time>
      </trkpt>
      <trkpt lat="45.87702" lon="6.56976">
        <ele>1746</ele>
        <time>2003-03-19T20:25:33Z</time>
      </trkpt>
      <trkpt lat="45.87616" lon="6.56899">
        <ele>1736</ele>
        <time>2003-03-19T20:25:33Z</time>
      </trkpt>
      <trkpt lat="45.87564" lon="6.56867">
        <ele>1731</ele>
        <time>2003-03-19T20:25:33Z</time>
      </trkpt>
      <trkpt lat="45.87539" lon="6.56867">
        <ele>1729</ele>
        <time>2003-03-19T20:25:33Z</time>
      </trkpt>
      <trkpt lat="45.87534" lon="6.56871">
        <ele>1731</ele>
        <time>2003-03-19T20:25:33Z</time>
      </trkpt>
      <trkpt lat="45.87534" lon="6.56867">
        <ele>1729</ele>
        <time>2003-03-19T20:25:33Z</time>
      </trkpt>
      <trkpt lat="45.87539" lon="6.56873">
        <ele>1733</ele>
        <time>2003-03-19T20:25:33Z</time>
      </trkpt>
      <trkpt lat="45.87532" lon="6.56869">
        <ele>1725</ele>
        <time>2003-03-19T20:25:33Z</time>
      </trkpt>
      <trkpt lat="45.87504" lon="6.56858">
        <ele>1727</ele>
        <time>2003-03-19T20:25:33Z</time>
      </trkpt>
      <trkpt lat="45.87444" lon="6.56854">
        <ele>1737</ele>
        <time>2003-03-19T20:25:33Z</time>
      </trkpt>
      <trkpt lat="45.87419" lon="6.56815">
        <ele>1742</ele>
        <time>2003-03-19T20:25:33Z</time>
      </trkpt>
      <trkpt lat="45.8738" lon="6.56798">
        <ele>1750</ele>
        <time>2003-03-19T20:25:33Z</time>
      </trkpt>
      <trkpt lat="45.87335" lon="6.56755">
        <ele>1753</ele>
        <time>2003-03-19T20:25:33Z</time>
      </trkpt>
      <trkpt lat="45.8729" lon="6.56731">
        <ele>1760</ele>
        <time>2003-03-19T20:25:33Z</time>
      </trkpt>
      <trkpt lat="45.87264" lon="6.56712">
        <ele>1767</ele>
        <time>2003-03-19T20:25:33Z</time>
      </trkpt>
      <trkpt lat="45.87221" lon="6.56654">
        <ele>1766</ele>
        <time>2003-03-19T20:25:33Z</time>
      </trkpt>
      <trkpt lat="45.87202" lon="6.56635">
        <ele>1767</ele>
        <time>2003-03-19T20:25:33Z</time>
      </trkpt>
      <trkpt lat="45.87187" lon="6.56626">
        <ele>1768</ele>
        <time>2003-03-19T20:25:33Z</time>
      </trkpt>
      <trkpt lat="45.87144" lon="6.56611">
        <ele>1768</ele>
        <time>2003-03-19T20:25:33Z</time>
      </trkpt>
      <trkpt lat="45.87107" lon="6.56607">
        <ele>1773</ele>
        <time>2003-03-19T20:25:33Z</time>
      </trkpt>
      <trkpt lat="45.87101" lon="6.56598">
        <ele>1774</ele>
        <time>2003-03-19T20:25:33Z</time>
      </trkpt>
      <trkpt lat="45.87103" lon="6.56575">
        <ele>1775</ele>
        <time>2003-03-19T20:25:33Z</time>
      </trkpt>
      <trkpt lat="45.87107" lon="6.56568">
        <ele>1775</ele>
        <time>2003-03-19T20:25:33Z</time>
      </trkpt>
      <trkpt lat="45.87107" lon="6.56568">
        <ele>1775</ele>
        <time>2003-03-19T20:25:33Z</time>
      </trkpt>
      <trkpt lat="45.87114" lon="6.56564">
        <ele>1773</ele>
        <time>2003-03-19T20:25:33Z</time>
      </trkpt>
      <trkpt lat="45.87122" lon="6.56536">
        <ele>1768</ele>
        <time>2003-03-19T20:25:33Z</time>
      </trkpt>
      <trkpt lat="45.87114" lon="6.56504">
        <ele>1763</ele>
        <time>2003-03-19T20:25:33Z</time>
      </trkpt>
      <trkpt lat="45.87112" lon="6.5648">
        <ele>1758</ele>
        <time>2003-03-19T20:25:33Z</time>
      </trkpt>
      <trkpt lat="45.8711" lon="6.56427">
        <ele>1743</ele>
        <time>2003-03-19T20:25:33Z</time>
      </trkpt>
      <trkpt lat="45.87118" lon="6.56229">
        <ele>1689</ele>
        <time>2003-03-19T20:25:33Z</time>
      </trkpt>
      <trkpt lat="45.87125" lon="6.56171">
        <ele>1672</ele>
        <time>2003-03-19T20:25:33Z</time>
      </trkpt>
      <trkpt lat="45.87135" lon="6.56137">
        <ele>1662</ele>
        <time>2003-03-19T20:25:33Z</time>
      </trkpt>
      <trkpt lat="45.87142" lon="6.56128">
        <ele>1658</ele>
        <time>2003-03-19T20:25:33Z</time>
      </trkpt>
      <trkpt lat="45.87144" lon="6.56128">
        <ele>1658</ele>
        <time>2003-03-19T20:25:33Z</time>
      </trkpt>
      <trkpt lat="45.87146" lon="6.56116">
        <ele>1656</ele>
        <time>2003-03-19T20:25:33Z</time>
      </trkpt>
      <trkpt lat="45.8715" lon="6.56073">
        <ele>1649</ele>
        <time>2003-03-19T20:25:33Z</time>
      </trkpt>
      <trkpt lat="45.8717" lon="6.56034">
        <ele>1631</ele>
        <time>2003-03-19T20:25:33Z</time>
      </trkpt>
      <trkpt lat="45.87191" lon="6.56">
        <ele>1614</ele>
        <time>2003-03-19T20:25:33Z</time>
      </trkpt>
      <trkpt lat="45.87213" lon="6.5598">
        <ele>1601</ele>
        <time>2003-03-19T20:25:33Z</time>
      </trkpt>
      <trkpt lat="45.87234" lon="6.55961">
        <ele>1589</ele>
        <time>2003-03-19T20:25:33Z</time>
      </trkpt>
      <trkpt lat="45.87238" lon="6.5595">
        <ele>1583</ele>
        <time>2003-03-19T20:25:33Z</time>
      </trkpt>
      <trkpt lat="45.87253" lon="6.5594">
        <ele>1573</ele>
        <time>2003-03-19T20:25:33Z</time>
      </trkpt>
      <trkpt lat="45.87277" lon="6.5592">
        <ele>1559</ele>
        <time>2003-03-19T20:25:33Z</time>
      </trkpt>
      <trkpt lat="45.87309" lon="6.55864">
        <ele>1539</ele>
        <time>2003-03-19T20:25:33Z</time>
      </trkpt>
      <trkpt lat="45.87296" lon="6.55841">
        <ele>1537</ele>
        <time>2003-03-19T20:25:33Z</time>
      </trkpt>
      <trkpt lat="45.87288" lon="6.55822">
        <ele>1532</ele>
        <time>2003-03-19T20:25:33Z</time>
      </trkpt>
      <trkpt lat="45.87275" lon="6.55804">
        <ele>1529</ele>
        <time>2003-03-19T20:25:33Z</time>
      </trkpt>
      <trkpt lat="45.87262" lon="6.55779">
        <ele>1523</ele>
        <time>2003-03-19T20:25:33Z</time>
      </trkpt>
      <trkpt lat="45.87251" lon="6.55753">
        <ele>1516</ele>
        <time>2003-03-19T20:25:33Z</time>
      </trkpt>
      <trkpt lat="45.8724" lon="6.5571">
        <ele>1505</ele>
        <time>2003-03-19T20:25:33Z</time>
      </trkpt>
      <trkpt lat="45.87219" lon="6.55656">
        <ele>1494</ele>
        <time>2003-03-19T20:25:33Z</time>
      </trkpt>
      <trkpt lat="45.87187" lon="6.5562">
        <ele>1484</ele>
        <time>2003-03-19T20:25:33Z</time>
      </trkpt>
      <trkpt lat="45.8718" lon="6.55607">
        <ele>1481</ele>
        <time>2003-03-19T20:25:33Z</time>
      </trkpt>
      <trkpt lat="45.8718" lon="6.55581">
        <ele>1473</ele>
        <time>2003-03-19T20:25:33Z</time>
      </trkpt>
      <trkpt lat="45.87168" lon="6.55549">
        <ele>1463</ele>
        <time>2003-03-19T20:25:33Z</time>
      </trkpt>
      <trkpt lat="45.87161" lon="6.55543">
        <ele>1460</ele>
        <time>2003-03-19T20:25:33Z</time>
      </trkpt>
      <trkpt lat="45.87157" lon="6.55536">
        <ele>1457</ele>
        <time>2003-03-19T20:25:33Z</time>
      </trkpt>
      <trkpt lat="45.8715" lon="6.55485">
        <ele>1449</ele>
        <time>2003-03-19T20:25:33Z</time>
      </trkpt>
      <trkpt lat="45.87135" lon="6.55446">
        <ele>1449</ele>
        <time>2003-03-19T20:25:33Z</time>
      </trkpt>
      <trkpt lat="45.8712" lon="6.5545">
        <ele>1448</ele>
        <time>2003-03-19T20:25:33Z</time>
      </trkpt>
      <trkpt lat="45.87095" lon="6.55427">
        <ele>1427</ele>
        <time>2003-03-19T20:25:33Z</time>
      </trkpt>
      <trkpt lat="45.87088" lon="6.55386">
        <ele>1427</ele>
        <time>2003-03-19T20:25:33Z</time>
      </trkpt>
      <trkpt lat="45.87077" lon="6.55352">
        <ele>1427</ele>
        <time>2003-03-19T20:25:33Z</time>
      </trkpt>
      <trkpt lat="45.87071" lon="6.55345">
        <ele>1429</ele>
        <time>2003-03-19T20:25:33Z</time>
      </trkpt>
      <trkpt lat="45.87073" lon="6.55307">
        <ele>1428</ele>
        <time>2003-03-19T20:25:33Z</time>
      </trkpt>
      <trkpt lat="45.8706" lon="6.55229">
        <ele>1427</ele>
        <time>2003-03-19T20:25:33Z</time>
      </trkpt>
      <trkpt lat="45.87071" lon="6.55225">
        <ele>1422</ele>
        <time>2003-03-19T20:25:33Z</time>
      </trkpt>
      <trkpt lat="45.87082" lon="6.55206">
        <ele>1419</ele>
        <time>2003-03-19T20:25:33Z</time>
      </trkpt>
      <trkpt lat="45.8708" lon="6.55193">
        <ele>1418</ele>
        <time>2003-03-19T20:25:33Z</time>
      </trkpt>
      <trkpt lat="45.87082" lon="6.55176">
        <ele>1418</ele>
        <time>2003-03-19T20:25:33Z</time>
      </trkpt>
      <trkpt lat="45.87097" lon="6.55163">
        <ele>1412</ele>
        <time>2003-03-19T20:25:33Z</time>
      </trkpt>
      <trkpt lat="45.8709" lon="6.55141">
        <ele>1410</ele>
        <time>2003-03-19T20:25:33Z</time>
      </trkpt>
      <trkpt lat="45.87095" lon="6.55141">
        <ele>1410</ele>
        <time>2003-03-19T20:25:33Z</time>
      </trkpt>
      <trkpt lat="45.8712" lon="6.55116">
        <ele>1406</ele>
        <time>2003-03-19T20:25:33Z</time>
      </trkpt>
      <trkpt lat="45.8717" lon="6.55049">
        <ele>1399</ele>
        <time>2003-03-19T20:25:33Z</time>
      </trkpt>
      <trkpt lat="45.87195" lon="6.5501">
        <ele>1399</ele>
        <time>2003-03-19T20:25:33Z</time>
      </trkpt>
      <trkpt lat="45.87236" lon="6.54912">
        <ele>1392</ele>
        <time>2003-03-19T20:25:33Z</time>
      </trkpt>
      <trkpt lat="45.87251" lon="6.548">
        <ele>1390</ele>
        <time>2003-03-19T20:25:33Z</time>
      </trkpt>
      <trkpt lat="45.87313" lon="6.54678">
        <ele>1379</ele>
        <time>2003-03-19T20:25:33Z</time>
      </trkpt>
      <trkpt lat="45.87303" lon="6.54641">
        <ele>1380</ele>
        <time>2003-03-19T20:25:33Z</time>
      </trkpt>
      <trkpt lat="45.87283" lon="6.54616">
        <ele>1380</ele>
        <time>2003-03-19T20:25:33Z</time>
      </trkpt>
      <trkpt lat="45.87298" lon="6.54573">
        <ele>1380</ele>
        <time>2003-03-19T20:25:33Z</time>
      </trkpt>
      <trkpt lat="45.87286" lon="6.54534">
        <ele>1380</ele>
        <time>2003-03-19T20:25:33Z</time>
      </trkpt>
      <trkpt lat="45.87283" lon="6.54506">
        <ele>1380</ele>
        <time>2003-03-19T20:25:33Z</time>
      </trkpt>
      <trkpt lat="45.87296" lon="6.54489">
        <ele>1380</ele>
        <time>2003-03-19T20:25:33Z</time>
      </trkpt>
      <trkpt lat="45.87303" lon="6.54489">
        <ele>1380</ele>
        <time>2003-03-19T20:25:33Z</time>
      </trkpt>
      <trkpt lat="45.87311" lon="6.54465">
        <ele>1380</ele>
        <time>2003-03-19T20:25:33Z</time>
      </trkpt>
      <trkpt lat="45.87324" lon="6.54468">
        <ele>1378</ele>
        <time>2003-03-19T20:25:33Z</time>
      </trkpt>
      <trkpt lat="45.87339" lon="6.54463">
        <ele>1371</ele>
        <time>2003-03-19T20:25:33Z</time>
      </trkpt>
      <trkpt lat="45.8735" lon="6.54468">
        <ele>1369</ele>
        <time>2003-03-19T20:25:33Z</time>
      </trkpt>
      <trkpt lat="45.87346" lon="6.54489">
        <ele>1366</ele>
        <time>2003-03-19T20:25:33Z</time>
      </trkpt>
      <trkpt lat="45.87346" lon="6.54498">
        <ele>1366</ele>
        <time>2003-03-19T20:25:33Z</time>
      </trkpt>
      <trkpt lat="45.87369" lon="6.545">
        <ele>1366</ele>
        <time>2003-03-19T20:25:33Z</time>
      </trkpt>
      <trkpt lat="45.87395" lon="6.54483">
        <ele>1367</ele>
        <time>2003-03-19T20:25:33Z</time>
      </trkpt>
      <trkpt lat="45.8741" lon="6.54465">
        <ele>1366</ele>
        <time>2003-03-19T20:25:33Z</time>
      </trkpt>
      <trkpt lat="45.87427" lon="6.54435">
        <ele>1367</ele>
        <time>2003-03-19T20:25:33Z</time>
      </trkpt>
      <trkpt lat="45.87446" lon="6.54384">
        <ele>1368</ele>
        <time>2003-03-19T20:25:33Z</time>
      </trkpt>
      <trkpt lat="45.87436" lon="6.54358">
        <ele>1363</ele>
        <time>2003-03-19T20:25:33Z</time>
      </trkpt>
      <trkpt lat="45.8744" lon="6.54347">
        <ele>1361</ele>
        <time>2003-03-19T20:25:33Z</time>
      </trkpt>
      <trkpt lat="45.87457" lon="6.54328">
        <ele>1361</ele>
        <time>2003-03-19T20:25:33Z</time>
      </trkpt>
      <trkpt lat="45.87472" lon="6.54294">
        <ele>1351</ele>
        <time>2003-03-19T20:25:33Z</time>
      </trkpt>
      <trkpt lat="45.87511" lon="6.54219">
        <ele>1341</ele>
        <time>2003-03-19T20:25:33Z</time>
      </trkpt>
      <trkpt lat="45.87519" lon="6.54193">
        <ele>1341</ele>
        <time>2003-03-19T20:25:33Z</time>
      </trkpt>
      <trkpt lat="45.87558" lon="6.54118">
        <ele>1340</ele>
        <time>2003-03-19T20:25:33Z</time>
      </trkpt>
      <trkpt lat="45.87556" lon="6.54083">
        <ele>1331</ele>
        <time>2003-03-19T20:25:33Z</time>
      </trkpt>
      <trkpt lat="45.87567" lon="6.54056">
        <ele>1326</ele>
        <time>2003-03-19T20:25:33Z</time>
      </trkpt>
      <trkpt lat="45.8762" lon="6.53972">
        <ele>1326</ele>
        <time>2003-03-19T20:25:33Z</time>
      </trkpt>
      <trkpt lat="45.87622" lon="6.53961">
        <ele>1325</ele>
        <time>2003-03-19T20:25:33Z</time>
      </trkpt>
      <trkpt lat="45.87637" lon="6.53942">
        <ele>1323</ele>
        <time>2003-03-19T20:25:33Z</time>
      </trkpt>
      <trkpt lat="45.87652" lon="6.53918">
        <ele>1321</ele>
        <time>2003-03-19T20:25:33Z</time>
      </trkpt>
      <trkpt lat="45.87659" lon="6.53895">
        <ele>1321</ele>
        <time>2003-03-19T20:25:33Z</time>
      </trkpt>
      <trkpt lat="45.8767" lon="6.5388">
        <ele>1320</ele>
        <time>2003-03-19T20:25:33Z</time>
      </trkpt>
      <trkpt lat="45.87672" lon="6.5386">
        <ele>1319</ele>
        <time>2003-03-19T20:25:33Z</time>
      </trkpt>
      <trkpt lat="45.8768" lon="6.53854">
        <ele>1322</ele>
        <time>2003-03-19T20:25:33Z</time>
      </trkpt>
      <trkpt lat="45.8768" lon="6.5385">
        <ele>1323</ele>
        <time>2003-03-19T20:25:33Z</time>
      </trkpt>
      <trkpt lat="45.877" lon="6.5382">
        <ele>1328</ele>
        <time>2003-03-19T20:25:33Z</time>
      </trkpt>
      <trkpt lat="45.87708" lon="6.53796">
        <ele>1328</ele>
        <time>2003-03-19T20:25:33Z</time>
      </trkpt>
      <trkpt lat="45.87736" lon="6.53751">
        <ele>1325</ele>
        <time>2003-03-19T20:25:33Z</time>
      </trkpt>
      <trkpt lat="45.87766" lon="6.53687">
        <ele>1325</ele>
        <time>2003-03-19T20:25:33Z</time>
      </trkpt>
      <trkpt lat="45.8777" lon="6.53659">
        <ele>1321</ele>
        <time>2003-03-19T20:25:33Z</time>
      </trkpt>
      <trkpt lat="45.87783" lon="6.53629">
        <ele>1321</ele>
        <time>2003-03-19T20:25:33Z</time>
      </trkpt>
      <trkpt lat="45.87831" lon="6.53553">
        <ele>1296</ele>
        <time>2003-03-19T20:25:33Z</time>
      </trkpt>
      <trkpt lat="45.87839" lon="6.53502">
        <ele>1299</ele>
        <time>2003-03-19T20:25:33Z</time>
      </trkpt>
      <trkpt lat="45.8785" lon="6.53468">
        <ele>1301</ele>
        <time>2003-03-19T20:25:33Z</time>
      </trkpt>
      <trkpt lat="45.87899" lon="6.53337">
        <ele>1299</ele>
        <time>2003-03-19T20:25:33Z</time>
      </trkpt>
      <trkpt lat="45.87934" lon="6.53281">
        <ele>1298</ele>
        <time>2003-03-19T20:25:33Z</time>
      </trkpt>
      <trkpt lat="45.87953" lon="6.53255">
        <ele>1295</ele>
        <time>2003-03-19T20:25:33Z</time>
      </trkpt>
      <trkpt lat="45.87964" lon="6.53219">
        <ele>1295</ele>
        <time>2003-03-19T20:25:33Z</time>
      </trkpt>
      <trkpt lat="45.87996" lon="6.53154">
        <ele>1294</ele>
        <time>2003-03-19T20:25:33Z</time>
      </trkpt>
      <trkpt lat="45.87996" lon="6.53141">
        <ele>1293</ele>
        <time>2003-03-19T20:25:33Z</time>
      </trkpt>
      <trkpt lat="45.87991" lon="6.53135">
        <ele>1294</ele>
        <time>2003-03-19T20:25:33Z</time>
      </trkpt>
      <trkpt lat="45.87968" lon="6.53107">
        <ele>1295</ele>
        <time>2003-03-19T20:25:33Z</time>
      </trkpt>
      <trkpt lat="45.87953" lon="6.53084">
        <ele>1291</ele>
        <time>2003-03-19T20:25:33Z</time>
      </trkpt>
      <trkpt lat="45.87942" lon="6.5306">
        <ele>1286</ele>
        <time>2003-03-19T20:25:33Z</time>
      </trkpt>
      <trkpt lat="45.87931" lon="6.53006">
        <ele>1286</ele>
        <time>2003-03-19T20:25:33Z</time>
      </trkpt>
      <trkpt lat="45.87951" lon="6.52931">
        <ele>1278</ele>
        <time>2003-03-19T20:25:33Z</time>
      </trkpt>
      <trkpt lat="45.87985" lon="6.52882">
        <ele>1268</ele>
        <time>2003-03-19T20:25:33Z</time>
      </trkpt>
      <trkpt lat="45.87994" lon="6.52852">
        <ele>1264</ele>
        <time>2003-03-19T20:25:33Z</time>
      </trkpt>
      <trkpt lat="45.88026" lon="6.52734">
        <ele>1252</ele>
        <time>2003-03-19T20:25:33Z</time>
      </trkpt>
      <trkpt lat="45.88028" lon="6.52712">
        <ele>1255</ele>
        <time>2003-03-19T20:25:33Z</time>
      </trkpt>
      <trkpt lat="45.88047" lon="6.52674">
        <ele>1248</ele>
        <time>2003-03-19T20:25:33Z</time>
      </trkpt>
      <trkpt lat="45.8806" lon="6.52637">
        <ele>1246</ele>
        <time>2003-03-19T20:25:33Z</time>
      </trkpt>
      <trkpt lat="45.88077" lon="6.52629">
        <ele>1245</ele>
        <time>2003-03-19T20:25:33Z</time>
      </trkpt>
      <trkpt lat="45.88079" lon="6.52622">
        <ele>1245</ele>
        <time>2003-03-19T20:25:33Z</time>
      </trkpt>
      <trkpt lat="45.88079" lon="6.52616">
        <ele>1245</ele>
        <time>2003-03-19T20:25:33Z</time>
      </trkpt>
      <trkpt lat="45.88064" lon="6.52616">
        <ele>1243</ele>
        <time>2003-03-19T20:25:33Z</time>
      </trkpt>
      <trkpt lat="45.88043" lon="6.52644">
        <ele>1242</ele>
        <time>2003-03-19T20:25:33Z</time>
      </trkpt>
      <trkpt lat="45.88026" lon="6.5265">
        <ele>1239</ele>
        <time>2003-03-19T20:25:33Z</time>
      </trkpt>
      <trkpt lat="45.88011" lon="6.52652">
        <ele>1236</ele>
        <time>2003-03-19T20:25:33Z</time>
      </trkpt>
      <trkpt lat="45.88" lon="6.52648">
        <ele>1232</ele>
        <time>2003-03-19T20:25:33Z</time>
      </trkpt>
      <trkpt lat="45.87996" lon="6.52654">
        <ele>1233</ele>
        <time>2003-03-19T20:25:33Z</time>
      </trkpt>
      <trkpt lat="45.87996" lon="6.52659">
        <ele>1234</ele>
        <time>2003-03-19T20:25:33Z</time>
      </trkpt>
    </trkseg>
  </trk>
</gpx>